FW0743 Weather Reports


time (UTC)temp
C
wind
direction
speed
KPH
gust
KPH
rain 1hr
cm
rain 24hr
cm
rain mn
cm
humidity
%
barometer
mb
20260905233009 18 343 1.6 11.3 0.00 0.00 0.00 85 1015.0
20260905231519 18 348 3.2 6.4 0.00 0.00 0.00 84 1014.7
20260905230017 19 303 4.8 14.5 0.00 0.00 0.00 82 1014.7
20260905224540 20 5 3.2 11.3 0.00 0.00 0.00 80 1014.6
20260905223008 19 340 6.4 16.1 0.00 0.00 0.00 80 1014.6
20260905221513 20 323 3.2 12.9 0.00 0.00 0.00 78 1014.7
20260905220019 20 321 6.4 17.7 0.00 0.00 0.00 78 1014.6
20260905214520 20 329 6.4 14.5 0.00 0.00 0.00 77 1014.3
20260905213019 20 323 4.8 19.3 0.00 0.00 0.00 76 1014.1
20260905211533 20 11 11.3 19.3 0.00 0.00 0.00 76 1014.0
20260905210026 21 302 6.4 19.3 0.00 0.00 0.00 76 1014.0
20260905204520 21 350 8.0 22.5 0.00 0.00 0.00 75 1014.0
20260905203026 21 350 8.0 19.3 0.00 0.00 0.00 74 1014.1
20260905201525 21 343 8.0 19.3 0.00 0.00 0.00 73 1014.1
20260905200022 21 312 11.3 22.5 0.00 0.00 0.00 73 1014.1
20260905194520 21 345 8.0 16.1 0.00 0.00 0.00 72 1014.0
20260905193027 21 342 6.4 19.3 0.00 0.00 0.00 72 1013.9
20260905191526 21 5 6.4 19.3 0.00 0.00 0.00 71 1014.0
20260905190027 21 319 9.7 19.3 0.00 0.00 0.00 72 1014.0
20260905184527 21 310 12.9 20.9 0.00 0.00 0.00 74 1013.9
20260905183026 21 22 6.4 20.9 0.00 0.00 0.00 73 1014.0
20260905181526 21 9 11.3 24.1 0.00 0.00 0.00 74 1014.0
20260905180032 20 319 9.7 20.9 0.00 0.00 0.00 75 1013.8
20260905174513 20 307 9.7 17.7 0.00 0.00 0.00 77 1013.8
20260905173021 20 334 11.3 17.7 0.00 0.00 0.00 76 1014.0
20260905171529 21 39 11.3 20.9 0.00 0.00 0.00 74 1014.0
20260905170009 21 347 9.7 17.7 0.00 0.00 0.00 73 1014.0
20260905164516 21 281 11.3 24.1 0.00 0.00 0.00 71 1014.0
20260905163016 21 344 9.7 16.1 0.00 0.00 0.00 71 1014.0
20260905161505 21 63 8.0 17.7 0.00 0.00 0.00 72 1014.0
20260905160003 20 76 4.8 20.9 0.00 0.00 0.00 75 1014.1
20260905154511 20 302 8.0 16.1 0.00 0.00 0.00 73 1014.2
20260905153018 20 331 6.4 16.1 0.00 0.00 0.00 75 1014.3
20260905151522 20 30 1.6 17.7 0.00 0.00 0.00 75 1014.3
20260905150004 20 345 6.4 16.1 0.00 0.00 0.00 76 1014.3
20260905144516 19 350 6.4 16.1 0.00 0.00 0.00 78 1014.3
20260905143009 19 324 4.8 14.5 0.00 0.00 0.00 78 1014.3
20260905141517 19 44 4.8 12.9 0.00 0.00 0.00 82 1014.1
20260905140024 18 351 4.8 16.1 0.00 0.00 0.00 82 1014.1
20260905134505 18 316 6.4 16.1 0.00 0.00 0.00 83 1014.2
20260905133009 18 117 4.8 12.9 0.00 0.00 0.00 85 1014.1
20260905131523 17 338 4.8 11.3 0.00 0.00 0.00 87 1014.2
20260905130020 16 31 3.2 12.9 0.00 0.00 0.00 90 1014.3
20260905124526 16 24 0.0 11.3 0.00 0.00 0.00 94 1014.4
20260905123007 15 44 1.6 9.7 0.00 0.00 0.00 95 1014.3
20260905121510 15 39 1.6 6.4 0.00 0.00 0.00 98 1014.2
20260905120017 13 352 0.0 1.6 0.00 0.00 0.00 98 1014.1
20260905114523 12 352 0.0 0.0 0.00 0.00 0.00 98 1014.0
20260905113006 12 352 0.0 0.0 0.00 0.00 0.00 98 1014.0
20260905111509 11 352 0.0 0.0 0.00 0.00 0.00 97 1013.7
20260905110014 11 352 0.0 0.0 0.00 0.00 0.00 97 1013.5
20260905104520 11 352 0.0 0.0 0.00 0.00 0.00 97 1013.3
20260905103030 11 352 0.0 1.6 0.00 0.00 0.00 97 1013.1
20260905101508 11 352 0.0 0.0 0.00 0.00 0.00 97 1013.2
20260905100019 12 352 0.0 0.0 0.00 0.00 0.00 97 1013.2
20260905094520 12 352 0.0 0.0 0.00 0.00 0.00 97 1013.2
20260905093024 12 352 0.0 0.0 0.00 0.00 0.00 97 1013.3
20260905091527 12 352 0.0 1.6 0.00 0.00 0.00 97 1013.2
20260905090010 12 352 0.0 0.0 0.00 0.00 0.00 96 1013.1
20260905084513 12 352 0.0 0.0 0.00 0.00 0.00 96 1013.2
20260905083018 12 352 0.0 0.0 0.00 0.00 0.00 96 1013.2
20260905081524 12 352 0.0 1.6 0.00 0.00 0.00 96 1013.3
20260905080030 12 352 0.0 0.0 0.00 0.00 0.00 95 1013.4
20260905074521 13 352 0.0 1.6 0.00 0.00 0.00 95 1013.3
20260905073016 13 352 0.0 1.6 0.00 0.00 0.00 95 1013.4
20260905071523 13 352 0.0 1.6 0.00 0.00 0.00 94 1013.4
20260905070026 13 352 0.0 1.6 0.00 0.00 0.00 94 1013.6
20260905064531 14 352 0.0 3.2 0.00 0.00 0.00 93 1013.5
20260905063014 14 352 0.0 4.8 0.00 0.00 0.00 93 1013.6
20260905061520 14 338 0.0 3.2 0.00 0.00 0.00 93 1013.7
20260905060040 15 324 0.0 1.6 0.00 0.00 0.00 92 1013.6
20260905054557 15 324 0.0 0.0 0.00 0.00 0.00 91 1013.7
20260905053033 15 324 0.0 3.2 0.00 0.00 0.00 90 1013.8
20260905051518 16 355 0.0 3.2 0.00 0.00 0.00 88 1013.9
20260905050003 16 345 0.0 3.2 0.00 0.00 0.00 88 1013.9
20260905044527 16 345 0.0 3.2 0.00 0.00 0.00 88 1014.0
20260905043007 16 345 0.0 3.2 0.00 0.00 0.00 90 1013.9
20260905041519 16 345 0.0 3.2 0.00 0.00 0.00 93 1013.9
20260905040021 16 345 0.0 3.2 0.00 0.00 0.00 95 1013.9
20260905034504 16 345 0.0 1.6 0.00 0.00 0.00 95 1013.8
20260905033008 16 345 0.0 1.6 0.00 0.00 0.00 95 1013.8
20260905031510 16 345 0.0 1.6 0.00 0.00 0.00 94 1013.6
20260905030029 16 345 0.0 1.6 0.00 0.00 0.00 94 1013.6
20260905024525 16 345 0.0 0.0 0.00 0.00 0.00 93 1013.6
20260905023003 16 345 0.0 1.6 0.00 0.00 0.00 93 1013.7
20260905021507 16 345 0.0 3.2 0.00 0.00 0.00 94 1013.8
20260905020014 16 345 0.0 1.6 0.00 0.00 0.00 93 1013.9
20260905014525 16 345 0.0 1.6 0.00 0.00 0.00 91 1013.7
20260905013008 16 345 0.0 1.6 0.00 0.00 0.00 91 1013.7
20260905011508 17 345 0.0 0.0 0.00 0.00 0.00 89 1013.8
20260905010017 17 345 0.0 0.0 0.00 0.00 0.00 90 1013.8
20260905004517 17 345 0.0 0.0 0.00 0.00 0.00 88 1013.8
20260905003025 17 345 0.0 0.0 0.00 0.00 0.00 86 1013.9
20260905001505 18 345 0.0 0.0 0.00 0.00 0.00 84 1013.8
20260905000008 18 345 0.0 1.6 0.00 0.00 0.00 82 1013.7
20260904234514 19 345 0.0 0.0 0.00 0.00 0.00 80 1013.6